Wind_Speed
24 26 29 33 35 36 38 40 41 42 43 44 47 49 49 49 48 48 48 49 49 48 47 47 45 44 44 43 42 42 42 41 41 40 39 39 39 38 38 38 37 37 37 36
22 24 24 28 33 34 37 38 38 40 40 42 44 47 47 48 48 47 47 47 48 47 47 47 46 45 44 44 43 43 42 43 42 42 41 40 41 40 40 39 39 38 37 37
20 21 23 26 30 32 33 34 35 37 38 39 40 43 45 46 46 46 46 47 47 47 47 46 45 44 44 44 44 44 44 44 44 43 43 43 42 42 42 41 40 40 40 39
18 20 21 24 28 29 30 31 32 34 36 37 39 41 44 44 45 45 45 45 46 46 46 46 45 44 44 45 45 45 45 44 45 45 45 45 44 43 43 42 42 42 42 41
15 19 20 22 25 27 29 30 31 31 32 34 37 39 41 42 43 44 44 45 45 45 45 46 46 46 45 45 45 45 45 46 45 45 45 46 46 45 45 44 44 43 43 42
14 17 19 20 22 24 26 27 29 29 30 33 34 38 40 40 40 42 43 45 46 46 47 47 47 47 46 46 46 46 46 46 46 46 46 46 46 45 45 45 46 46 45 44
13 15 17 19 21 23 25 26 26 28 30 32 33 35 38 39 38 39 42 44 45 46 47 47 47 47 46 45 46 46 46 46 45 45 45 46 47 47 46 46 46 46 46 45
13 14 15 18 21 22 24 25 26 28 30 31 32 34 35 36 37 37 40 43 45 45 46 47 47 46 46 46 46 46 46 46 47 46 46 46 47 47 47 47 46 46 46 46
12 14 14 16 19 21 23 24 26 27 28 30 32 33 35 34 35 37 38 40 42 44 46 47 47 47 47 46 45 45 46 46 47 46 46 46 47 48 48 48 47 47 47 46
10 13 16 16 18 20 23 23 24 26 27 28 30 33 33 34 35 37 38 40 41 43 44 46 46 47 48 47 46 46 46 46 46 47 47 46 46 47 47 47 47 46 47 47
8 13 16 17 18 19 21 23 24 26 27 28 30 32 31 32 33 34 37 38 40 41 42 44 45 47 47 47 47 46 47 47 46 45 46 46 46 46 44 45 45 45 45 46
8 11 15 16 18 20 21 21 23 23 24 26 29 30 30 32 33 34 35 38 39 40 41 42 43 45 46 46 46 47 46 46 47 47 46 46 46 46 45 45 45 46 46 46
8 11 13 15 17 20 21 22 22 23 23 23 24 26 28 30 32 33 35 37 38 38 39 40 42 42 44 46 46 46 47 46 47 47 47 46 46 46 46 46 46 46 47 46
10 12 13 16 17 19 21 22 23 25 25 24 24 25 26 27 29 30 33 35 36 36 37 38 39 40 41 43 44 45 45 45 46 46 47 47 47 47 47 47 47 47 47 47
12 12 14 16 17 18 20 20 22 24 25 25 25 25 25 25 27 28 30 32 33 35 36 37 38 40 42 43 43 44 44 44 45 45 46 46 46 47 47 47 47 47 48 48
14 14 14 16 18 19 20 20 21 23 25 25 26 26 27 27 27 27 29 30 31 32 33 35 36 38 39 41 42 43 44 44 44 44 44 44 44 45 46 47 47 48 48 48
15 15 16 17 18 20 21 22 24 24 24 25 25 25 27 28 29 29 29 30 31 32 33 33 35 36 39 40 41 42 43 43 43 43 43 43 43 43 44 45 46 46 47 48
15 16 18 19 19 21 21 22 23 25 25 26 27 26 27 27 28 29 30 30 31 32 33 34 35 35 37 39 40 41 42 42 43 43 43 43 44 44 44 45 45 46 47 47
16 17 18 19 21 20 20 22 23 24 25 26 26 27 27 28 29 29 30 30 31 32 34 35 35 35 36 37 38 39 40 41 42 43 43 43 44 44 44 44 45 45 45 45
18 19 19 20 21 20 19 20 22 23 24 24 25 27 28 30 30 29 31 31 31 32 32 33 34 34 35 36 37 37 38 39 40 42 43 43 44 44 44 44 44 44 45 45
19 20 20 20 21 21 21 22 22 24 25 26 26 27 28 29 29 29 30 30 30 31 31 32 32 33 34 35 36 37 38 39 40 40 41 42 43 43 43 43 44 44 44 44
20 20 20 20 21 21 22 23 24 24 25 26 27 27 28 29 29 29 29 29 30 31 31 32 33 33 34 35 36 37 37 38 39 40 40 40 41 41 42 42 42 42 43 43
21 21 20 20 20 21 22 24 25 26 27 26 25 27 28 29 29 29 29 30 30 31 32 32 33 34 35 35 36 36 37 38 39 39 39 39 40 40 40 40 40 41 41 42
21 20 20 20 20 20 21 22 24 25 25 26 26 26 27 27 28 27 27 28 29 31 31 32 32 32 33 35 36 36 36 36 38 38 39 39 39 40 40 40 40 40 40 40
19 20 20 20 20 21 22 23 24 25 25 26 26 26 26 26 27 27 26 27 28 29 30 30 31 32 32 32 33 33 34 34 35 36 37 38 38 39 39 39 38 38 38 38
20 20 21 21 22 23 24 25 25 26 26 26 26 26 27 26 27 27 27 27 27 28 29 29 30 31 30 30 30 31 32 33 33 33 35 36 37 37 37 37 36 36 36 36
Wind_Direction
216 219 221 221 220 223 225 225 225 226 227 227 227 227 225 224 224 224 226 226 226 227 228 229 231 232 233 235 237 239 240 241 242 244 244 245 247 248 249 251 254 257 259 260
216 218 219 219 219 221 222 225 226 226 227 228 228 226 225 225 224 224 225 226 225 226 228 230 231 233 234 236 237 238 240 242 243 244 244 246 248 248 249 251 254 255 257 259
216 218 218 217 218 221 222 224 226 226 226 227 228 227 225 224 223 223 225 227 226 226 227 229 232 234 236 237 238 239 240 242 243 245 246 247 249 249 249 252 254 255 257 260
221 220 221 219 220 222 223 224 225 225 225 225 225 228 224 224 224 224 225 227 228 228 229 231 233 236 237 239 240 241 242 243 245 246 247 249 250 252 252 253 254 256 258 260
223 221 220 219 220 223 224 224 225 225 226 229 227 229 226 224 225 226 226 228 229 229 230 232 233 235 238 240 242 243 244 245 247 248 249 250 252 253 253 254 255 256 257 259
224 222 220 218 219 221 222 221 224 226 229 232 229 231 229 226 225 226 227 228 230 230 231 232 234 236 238 240 242 244 244 246 247 249 250 251 252 253 254 254 255 256 258 259
225 221 217 216 217 220 220 220 222 225 230 233 231 233 232 228 226 228 229 230 232 233 233 233 236 238 239 241 242 243 245 246 247 249 250 251 251 252 254 256 256 258 259 261
224 221 218 219 219 220 221 222 225 227 231 233 234 234 233 231 229 230 231 232 233 234 234 235 237 240 240 241 242 243 244 246 247 248 250 251 252 252 254 255 257 260 261 263
233 225 222 221 222 225 224 224 225 231 235 237 237 236 234 234 232 233 234 234 234 235 235 236 238 240 240 241 242 243 244 245 246 248 250 252 253 253 254 256 257 259 260 262
243 233 228 226 226 228 229 228 229 233 237 240 241 240 237 234 234 235 236 236 236 236 236 237 237 239 241 242 242 242 243 245 247 249 250 252 254 255 256 256 256 258 261 262
246 241 234 230 228 231 233 233 235 236 238 242 244 243 241 238 238 237 238 237 237 237 238 240 240 239 241 243 245 245 246 248 249 250 251 252 254 255 257 257 258 259 261 263
261 251 240 236 234 236 239 240 240 239 242 243 244 244 242 241 241 240 239 238 238 238 240 241 241 241 241 243 245 246 248 249 250 251 252 253 254 256 257 259 260 261 262 263
269 257 249 243 242 240 241 242 241 241 243 244 245 247 244 244 244 243 242 240 240 240 242 243 243 243 244 245 245 246 248 249 250 252 254 255 256 257 258 260 262 262 263 263
273 262 258 253 249 244 244 246 246 244 243 245 246 247 247 246 245 245 244 242 242 243 244 244 244 244 244 245 246 247 248 250 251 253 254 256 257 258 259 261 262 262 262 263
276 272 264 256 251 249 247 248 250 248 248 248 248 251 250 249 249 246 245 244 244 244 245 246 246 246 246 246 247 247 248 250 252 253 255 257 258 258 259 260 261 261 262 264
273 272 266 259 254 251 248 247 249 249 249 249 251 252 253 253 251 248 247 248 247 246 245 246 246 246 246 247 248 248 250 252 253 254 255 257 257 258 259 260 261 261 263 265
273 271 268 262 257 253 250 249 250 249 250 249 251 254 256 256 253 251 252 251 251 250 248 249 249 249 248 248 249 249 250 251 253 254 255 256 257 258 260 260 260 263 265 266
276 274 272 265 260 258 253 252 253 253 252 253 253 254 256 257 256 254 254 253 252 251 250 250 250 250 250 250 250 250 250 252 254 255 255 256 257 259 260 262 263 264 265 266
277 277 276 273 267 263 257 254 254 255 252 252 254 255 256 255 255 255 257 256 253 251 250 250 250 250 250 250 250 252 253 254 254 255 256 257 258 260 261 263 264 265 266 267
280 277 278 277 273 268 264 259 256 255 254 254 257 257 257 256 256 256 258 257 255 253 252 253 252 251 251 251 251 252 253 253 254 255 256 258 259 261 262 263 264 266 266 267
284 280 278 278 276 271 268 266 263 260 259 259 260 260 259 259 260 259 258 257 257 256 255 254 253 252 252 253 253 254 254 254 255 256 257 258 260 261 262 264 265 265 266 266
284 283 280 279 277 273 270 269 267 266 265 264 262 261 261 261 261 260 258 258 258 257 256 255 254 254 254 254 255 256 256 255 256 256 257 259 260 261 262 264 265 265 265 266
284 282 280 280 278 274 271 270 268 267 266 266 265 264 263 262 261 261 260 259 259 259 258 258 257 255 256 257 257 257 257 257 257 257 257 258 259 261 263 264 265 265 266 267
285 282 281 281 279 275 273 271 269 267 267 266 265 266 266 265 263 263 263 262 260 260 259 258 258 257 257 257 257 257 257 256 257 258 258 258 260 261 262 262 264 265 266 267
288 284 284 282 279 276 276 274 272 270 268 265 265 265 266 266 264 263 264 264 261 259 258 258 258 258 259 259 259 258 258 259 259 259 258 259 260 261 261 262 264 265 265 267
290 288 286 285 283 281 279 277 275 274 270 267 265 265 264 265 264 265 265 265 263 259 257 257 258 260 260 259 259 260 261 262 261 260 260 260 260 261 261 262 263 264 266 267
Height
5630 5636 5639 5645 5652 5658 5663 5669 5674 5679 5684 5690 5696 5702 5709 5716 5723 5730 5736 5742 5749 5755 5761 5766 5771 5776 5780 5784 5787 5791 5794 5796 5799 5801 5803 5805 5806 5808 5809 5811 5812 5812 5813 5814
5628 5632 5638 5642 5647 5651 5656 5662 5667 5673 5677 5682 5688 5694 5701 5707 5714 5721 5727 5734 5740 5746 5752 5757 5762 5767 5771 5776 5779 5782 5785 5788 5790 5792 5795 5797 5798 5799 5801 5802 5803 5804 5805 5806
5626 5631 5634 5637 5642 5647 5651 5656 5662 5667 5671 5675 5680 5685 5692 5699 5705 5712 5718 5725 5731 5738 5743 5748 5753 5758 5763 5766 5770 5773 5776 5779 5781 5783 5786 5787 5788 5790 5792 5793 5795 5796 5796 5797
5623 5627 5630 5634 5638 5643 5647 5652 5657 5661 5665 5668 5673 5677 5685 5690 5697 5703 5710 5716 5722 5728 5734 5739 5744 5748 5753 5757 5760 5764 5767 5769 5771 5774 5776 5778 5779 5781 5783 5785 5786 5786 5787 5788
5621 5624 5627 5631 5635 5639 5644 5648 5652 5656 5659 5663 5667 5670 5677 5682 5688 5696 5702 5707 5713 5719 5724 5730 5734 5739 5743 5747 5750 5753 5756 5759 5762 5764 5766 5768 5770 5771 5773 5775 5776 5777 5778 5779
5620 5622 5625 5628 5632 5636 5640 5644 5648 5651 5653 5656 5660 5664 5670 5675 5682 5688 5693 5698 5704 5709 5715 5719 5724 5729 5733 5737 5740 5743 5746 5749 5751 5754 5756 5758 5759 5761 5763 5764 5766 5767 5769 5769
5617 5619 5622 5625 5629 5632 5636 5640 5642 5644 5646 5649 5654 5657 5663 5669 5675 5680 5685 5690 5695 5700 5705 5710 5714 5719 5723 5727 5730 5733 5736 5739 5741 5743 5745 5747 5749 5751 5753 5754 5755 5757 5759 5759
5615 5618 5620 5623 5626 5629 5632 5635 5638 5640 5642 5645 5648 5651 5658 5663 5668 5672 5676 5681 5685 5690 5695 5700 5704 5709 5713 5716 5719 5722 5725 5728 5730 5733 5735 5736 5738 5740 5742 5744 5746 5747 5748 5749
5614 5616 5618 5620 5623 5626 5628 5630 5634 5636 5638 5640 5642 5646 5651 5655 5660 5664 5668 5672 5676 5680 5685 5690 5694 5698 5702 5706 5709 5712 5715 5717 5720 5722 5724 5726 5728 5730 5732 5734 5735 5737 5738 5739
5611 5614 5616 5617 5620 5622 5624 5627 5629 5630 5632 5634 5637 5640 5645 5648 5652 5656 5660 5664 5667 5671 5675 5680 5684 5687 5691 5695 5698 5701 5704 5707 5709 5712 5714 5717 5718 5720 5721 5723 5725 5726 5727 5728
5609 5611 5612 5614 5615 5618 5620 5622 5624 5626 5628 5629 5631 5637 5639 5642 5645 5649 5653 5656 5659 5662 5666 5670 5673 5677 5681 5684 5688 5691 5694 5697 5699 5702 5704 5706 5708 5709 5711 5713 5714 5715 5717 5718
5606 5607 5608 5610 5612 5614 5615 5618 5619 5622 5623 5624 5626 5632 5632 5635 5638 5641 5644 5647 5650 5654 5657 5660 5663 5667 5670 5674 5678 5681 5684 5686 5689 5691 5693 5695 5697 5699 5701 5702 5703 5704 5705 5706
5604 5604 5605 5606 5609 5610 5611 5612 5614 5617 5618 5619 5621 5627 5626 5629 5631 5634 5636 5639 5642 5645 5648 5651 5654 5657 5660 5664 5667 5670 5673 5676 5678 5681 5683 5685 5687 5688 5690 5691 5693 5694 5694 5695
5601 5602 5603 5604 5604 5605 5607 5608 5610 5611 5613 5615 5617 5620 5621 5622 5624 5627 5629 5631 5633 5636 5639 5641 5644 5647 5650 5653 5657 5660 5663 5665 5668 5670 5672 5674 5676 5678 5679 5680 5682 5683 5683 5684
5598 5599 5599 5600 5600 5601 5602 5604 5605 5606 5608 5610 5612 5613 5615 5616 5618 5620 5621 5623 5625 5628 5630 5632 5635 5637 5640 5643 5646 5649 5652 5655 5657 5659 5661 5663 5665 5666 5668 5669 5670 5671 5672 5673
5595 5595 5595 5596 5596 5596 5597 5598 5599 5601 5602 5604 5606 5608 5608 5610 5611 5613 5614 5616 5618 5620 5622 5623 5626 5628 5630 5633 5636 5639 5642 5644 5646 5648 5650 5652 5653 5655 5656 5658 5658 5659 5660 5661
5592 5591 5591 5591 5591 5591 5592 5594 5594 5596 5597 5598 5600 5602 5602 5604 5605 5606 5607 5608 5610 5611 5613 5615 5617 5618 5621 5623 5626 5629 5631 5633 5635 5637 5639 5641 5642 5644 5645 5646 5647 5648 5648 5649
5588 5587 5586 5586 5586 5586 5590 5588 5589 5590 5591 5592 5593 5595 5595 5597 5598 5598 5599 5601 5602 5603 5605 5606 5608 5610 5611 5613 5616 5618 5620 5623 5625 5627 5629 5630 5631 5633 5633 5634 5635 5636 5636 5637
5583 5582 5581 5581 5580 5580 5582 5582 5583 5584 5585 5586 5586 5587 5588 5589 5590 5591 5592 5593 5594 5595 5596 5598 5599 5601 5602 5604 5606 5608 5610 5612 5614 5616 5617 5619 5620 5621 5622 5623 5624 5624 5625 5625
5578 5577 5577 5576 5574 5575 5577 5576 5576 5578 5578 5579 5579 5580 5581 5581 5583 5585 5584 5584 5585 5586 5587 5589 5590 5591 5593 5594 5596 5598 5600 5602 5603 5605 5606 5607 5609 5610 5611 5611 5612 5612 5613 5613
5572 5571 5571 5570 5569 5569 5570 5569 5569 5572 5573 5572 5572 5572 5573 5573 5574 5575 5575 5576 5576 5578 5579 5580 5581 5583 5584 5585 5586 5588 5590 5591 5592 5593 5595 5596 5597 5598 5599 5600 5600 5601 5601 5602
5567 5566 5565 5564 5563 5566 5563 5563 5564 5565 5564 5564 5564 5564 5564 5565 5565 5566 5566 5567 5568 5569 5570 5571 5572 5573 5574 5575 5576 5578 5579 5580 5581 5583 5584 5585 5586 5586 5587 5588 5588 5589 5589 5590
5561 5561 5559 5559 5560 5558 5556 5556 5556 5556 5557 5557 5557 5557 5557 5557 5557 5557 5558 5558 5559 5559 5561 5561 5562 5564 5564 5565 5566 5567 5568 5569 5570 5571 5572 5573 5574 5575 5576 5577 5577 5577 5578 5578
5555 5554 5553 5552 5552 5551 5549 5549 5549 5549 5549 5549 5549 5549 5549 5549 5549 5549 5549 5550 5550 5550 5551 5552 5553 5554 5554 5555 5556 5557 5557 5558 5559 5560 5561 5562 5563 5564 5565 5565 5566 5566 5567 5567
5549 5547 5546 5545 5545 5544 5543 5542 5541 5541 5541 5541 5541 5541 5541 5541 5541 5541 5541 5541 5541 5541 5541 5542 5543 5544 5544 5545 5546 5546 5547 5547 5548 5549 5550 5551 5552 5553 5553 5554 5555 5555 5556 5556
5543 5542 5540 5539 5538 5537 5536 5535 5534 5533 5533 5533 5533 5533 5532 5532 5533 5533 5532 5532 5532 5533 5533 5533 5534 5534 5535 5535 5536 5536 5537 5537 5538 5538 5539 5540 5541 5542 5543 5544 5544 5544 5545 5545